NETSAT-3 (46505 NORAD) Tracking and Keplerian Element Data

This shows tracking and keplerian element data for the satellite.

Feedback or suggestion? Click here.




ElementValue
Catalog46505
NameNETSAT-3
Epoch Orbit984
Epoch Day338.57497585
Epoch Year2020
RAAN271.2833
Inclination97.6672
Eccentricity0.0011057
Argument of Perigee43.415
Mean Anonmoly316.7968
Mean Motion15.01840744
Decay Rate1.736E-05
L11 46505U 20068V 20338.57497585 .00001736 00000-0 13755-3 0 9993
L22 46505 97.6672 271.2833 0011057 43.4150 316.7968 15.01840744 9841

Live tracking and technical data element details for NETSAT-3 (NORAD 46505). NETSAT-3 can be tracked NOW for your location showing map with azimuth and elevation plus other details from your city location.

Track the satellite on the map from your city or location and see movement details for azimuth, elevation, latitude, longitude, range, height, and movement on the map or in text.







IsCatalogInMostPopularTable: catalog: 46505, numindb: 22
Update: records affected: 1



GetName: 46505 NETSAT-3

Hit Count: updated at: Sun, 06 Dec 2020 00:41:03 GMT